EW9675 Weather Reports


Display with metric or nautical units.
time (UTC)temp
F
wind
direction
speed
MPH
gust
MPH
rain 1hr
in
rain 24hr
in
rain mn
in
humidity
%
barometer
mb
20260507090504 56 191 5.0 10.0 0.00 0.00 0.00 70 1029.1
20260507090005 55 187 5.0 9.0 0.00 0.00 0.00 70 1029.1
20260507085503 55 189 5.0 9.0 0.00 0.00 0.00 70 1029.1
20260507085004 55 192 5.0 10.0 0.00 0.00 0.00 69 1029.0
20260507084524 55 192 5.0 10.0 0.00 0.01 0.00 69 1029.0
20260507084003 55 196 5.0 13.0 0.00 0.01 0.00 68 1028.9
20260507083524 55 196 5.0 13.0 0.00 0.01 0.00 67 1028.8
20260507083004 56 195 5.0 10.0 0.00 0.01 0.00 67 1028.7
20260507082503 56 197 5.0 10.0 0.00 0.01 0.00 66 1028.7
20260507082003 56 197 5.0 10.0 0.00 0.01 0.00 66 1028.7
20260507081504 57 200 6.0 11.0 0.00 0.01 0.00 65 1028.7
20260507081003 57 198 8.0 11.0 0.00 0.01 0.00 65 1028.7
20260507080504 58 200 9.0 14.0 0.00 0.01 0.00 64 1028.6
20260507080004 58 203 9.0 17.0 0.00 0.01 0.00 64 1028.6
20260507075504 58 203 9.0 17.0 0.00 0.01 0.00 63 1028.6
20260507075004 58 204 8.0 17.0 0.00 0.01 0.00 63 1028.6
20260507074503 58 209 8.0 15.0 0.00 0.01 0.00 61 1028.6
20260507074003 59 214 7.0 17.0 0.00 0.01 0.00 60 1028.7
20260507073503 59 217 7.0 17.0 0.00 0.01 0.00 59 1028.7
20260507073004 59 224 7.0 14.0 0.00 0.01 0.00 59 1028.6
20260507072524 60 218 6.0 14.0 0.00 0.01 0.00 58 1028.7
20260507072024 60 205 6.0 11.0 0.00 0.01 0.00 58 1028.7
20260507071504 59 203 7.0 14.0 0.00 0.01 0.00 59 1028.7
20260507071003 59 202 7.0 14.0 0.00 0.01 0.00 59 1028.7
20260507070503 59 202 6.0 15.0 0.00 0.01 0.00 59 1028.6
20260507070024 59 203 5.0 15.0 0.00 0.01 0.00 60 1028.6
20260507065504 59 202 5.0 11.0 0.00 0.01 0.00 62 1028.6
20260507065024 59 196 5.0 11.0 0.00 0.01 0.00 61 1028.6
20260507064503 60 191 6.0 11.0 0.00 0.01 0.00 61 1028.6
20260507064003 60 197 6.0 14.0 0.00 0.01 0.00 61 1028.6
20260507063503 60 200 6.0 14.0 0.00 0.01 0.00 60 1028.5
20260507063024 60 202 6.0 13.0 0.00 0.01 0.00 60 1028.6
20260507062524 60 201 6.0 15.0 0.00 0.01 0.00 61 1028.5
20260507062003 60 196 6.0 15.0 0.00 0.01 0.00 61 1028.5
20260507061503 60 199 7.0 14.0 0.00 0.01 0.00 61 1028.5
20260507061003 60 210 8.0 14.0 0.00 0.01 0.00 61 1028.5
20260507060503 60 216 9.0 18.0 0.00 0.01 0.00 60 1028.5
20260507060004 60 216 8.0 18.0 0.00 0.01 0.00 60 1028.5
20260507055503 60 221 7.0 17.0 0.00 0.01 0.00 60 1028.5
20260507055004 60 218 7.0 17.0 0.00 0.01 0.00 59 1028.5
20260507054504 60 213 8.0 14.0 0.00 0.01 0.00 59 1028.6
20260507054004 60 219 9.0 15.0 0.00 0.01 0.00 60 1028.6
20260507053525 60 218 9.0 17.0 0.00 0.01 0.00 57 1028.6
20260507053005 61 205 9.0 17.0 0.00 0.01 0.00 58 1028.5
20260507052504 61 203 9.0 17.0 0.00 0.01 0.00 57 1028.5
20260507052004 61 205 8.0 18.0 0.00 0.01 0.00 57 1028.5
20260507051504 61 203 9.0 18.0 0.00 0.01 0.00 56 1028.5
20260507051025 61 206 10.0 18.0 0.00 0.02 0.00 58 1028.5
20260507050504 60 203 9.0 18.0 0.00 0.02 0.00 56 1028.5
20260507050004 60 200 9.0 18.0 0.00 0.02 0.00 56 1028.6
20260507045504 61 219 10.0 18.0 0.00 0.02 0.00 56 1028.6
20260507045004 61 235 8.0 18.0 0.00 0.02 0.00 56 1028.5
20260507044504 61 232 7.0 18.0 0.00 0.02 0.00 54 1028.5
20260507044004 62 217 7.0 13.0 0.00 0.02 0.00 55 1028.5
20260507043525 61 220 7.0 18.0 0.00 0.02 0.00 57 1028.5
20260507043004 61 226 7.0 18.0 0.00 0.02 0.00 55 1028.6
20260507042504 61 218 8.0 14.0 0.00 0.02 0.00 57 1028.7
20260507042025 61 200 9.0 18.0 0.00 0.02 0.00 57 1028.7
20260507041504 61 201 9.0 18.0 0.00 0.02 0.00 57 1028.7
20260507041004 61 208 8.0 15.0 0.00 0.02 0.00 57 1028.8
20260507040525 61 218 8.0 15.0 0.00 0.02 0.00 55 1028.8
20260507040004 61 219 7.0 17.0 0.00 0.02 0.00 54 1028.8
20260507035504 61 217 6.0 17.0 0.00 0.02 0.00 56 1028.8
20260507035004 61 218 7.0 14.0 0.00 0.02 0.00 56 1028.8
20260507034504 61 205 8.0 14.0 0.00 0.02 0.00 58 1028.9
20260507034004 61 215 8.0 14.0 0.00 0.02 0.00 57 1028.9
20260507033504 62 223 8.0 14.0 0.00 0.02 0.00 56 1028.8
20260507033004 62 226 8.0 14.0 0.00 0.02 0.00 55 1028.8
20260507032504 62 233 8.0 11.0 0.00 0.03 0.00 56 1028.8
20260507032004 61 213 8.0 15.0 0.00 0.06 0.00 58 1028.8
20260507031504 61 199 8.0 15.0 0.00 0.06 0.00 56 1028.8
20260507031004 61 202 8.0 15.0 0.00 0.06 0.00 57 1028.9
20260507030504 61 201 8.0 14.0 0.00 0.06 0.00 55 1028.9
20260507030004 61 206 9.0 20.0 0.00 0.06 0.00 56 1029.0
20260507025504 61 209 8.0 20.0 0.00 0.06 0.00 56 1029.0
20260507025004 60 209 8.0 15.0 0.00 0.06 0.00 56 1029.1
20260507024504 60 208 8.0 17.0 0.00 0.06 0.00 57 1029.1
20260507024004 60 206 8.0 17.0 0.00 0.06 0.00 57 1029.2
20260507023504 60 214 10.0 19.0 0.00 0.06 0.00 56 1029.2
20260507023004 60 215 9.0 19.0 0.00 0.06 0.00 57 1029.3
20260507022525 60 211 8.0 20.0 0.00 0.06 0.00 56 1029.2
20260507022004 61 208 8.0 20.0 0.00 0.06 0.00 55 1029.3
20260507021504 61 208 9.0 17.0 0.00 0.06 0.00 54 1029.3
20260507021004 61 215 9.0 20.0 0.00 0.06 0.00 55 1029.3
20260507020504 61 217 8.0 20.0 0.00 0.06 0.00 51 1029.3
20260507020004 62 210 8.0 15.0 0.00 0.06 0.00 51 1029.4
20260507015525 63 196 8.0 17.0 0.00 0.06 0.00 50 1029.5
20260507015004 63 183 8.0 18.0 0.00 0.06 0.00 52 1029.4
20260507014504 62 190 8.0 18.0 0.00 0.06 0.00 53 1029.5
20260507014004 61 196 8.0 18.0 0.00 0.06 0.00 55 1029.5
20260507013504 60 200 8.0 17.0 0.00 0.06 0.00 57 1029.5
20260507013004 60 206 9.0 20.0 0.00 0.06 0.00 55 1029.4
20260507012504 60 200 8.0 20.0 0.00 0.06 0.00 57 1029.4
20260507012004 59 193 8.0 14.0 0.00 0.06 0.00 60 1029.4
20260507011504 59 196 9.0 14.0 0.00 0.06 0.00 59 1029.3
20260507011004 60 204 9.0 15.0 0.00 0.06 0.00 58 1029.3
20260507010504 60 209 10.0 18.0 0.00 0.06 0.00 59 1029.3
20260507010004 60 208 10.0 20.0 0.00 0.06 0.00 60 1029.3
20260507005504 60 206 10.0 20.0 0.00 0.06 0.00 59 1029.3
20260507005004 60 204 10.0 20.0 0.00 0.06 0.00 60 1029.3
20260507004525 59 203 10.0 20.0 0.00 0.06 0.00 60 1029.2
20260507004004 59 206 9.0 19.0 0.00 0.06 0.00 62 1029.2
20260507003504 59 208 8.0 19.0 0.00 0.06 0.00 61 1029.2
20260507003004 59 207 9.0 14.0 0.00 0.06 0.00 63 1029.2
20260507002504 59 209 8.0 23.0 0.00 0.06 0.00 64 1029.1
20260507002025 58 209 8.0 23.0 0.00 0.06 0.00 63 1029.1
20260507001504 58 210 7.0 14.0 0.00 0.06 0.00 66 1029.1
20260507001004 58 213 6.0 14.0 0.00 0.06 0.00 65 1029.2
20260507000504 58 213 6.0 13.0 0.00 0.06 0.00 66 1029.2
20260507000025 58 213 6.0 13.0 0.00 0.06 0.00 68 1029.2
20260506235504 57 210 6.0 13.0 0.00 0.06 0.00 69 1029.2
20260506235004 56 203 6.0 13.0 0.00 0.06 0.00 69 1029.2
20260506234504 56 200 6.0 13.0 0.00 0.06 0.00 70 1029.1
20260506234003 56 201 6.0 13.0 0.00 0.06 0.00 69 1029.0
20260506233503 56 202 5.0 13.0 0.00 0.06 0.00 70 1029.1
20260506233004 56 204 4.0 10.0 0.00 0.06 0.00 71 1029.1
20260506232525 55 205 3.0 10.0 0.00 0.07 0.00 74 1028.9
20260506232025 54 202 3.0 10.0 0.00 0.09 0.00 76 1029.0
20260506231504 53 200 2.0 8.0 0.00 0.09 0.00 79 1029.0
20260506231004 52 204 1.0 8.0 0.00 0.09 0.00 80 1028.9
20260506230504 52 187 1.0 5.0 0.00 0.09 0.00 82 1028.8
20260506230004 51 123 1.0 6.0 0.00 0.09 0.00 83 1028.7
20260506225504 50 123 0.0 6.0 0.00 0.09 0.00 84 1028.7
20260506225004 50 80 0.0 3.0 0.00 0.09 0.00 85 1028.7
20260506224504 49 80 0.0 3.0 0.00 0.09 0.00 86 1028.6
20260506224003 49 0 0.0 0.0 0.00 0.09 0.00 86 1028.5
20260506223504 48 0 1.0 0.0 0.00 0.09 0.00 85 1028.5
20260506223004 48 83 3.0 5.0 0.00 0.09 0.00 85 1028.5
20260506222504 48 91 3.0 6.0 0.00 0.09 0.00 85 1028.4
20260506222024 48 93 2.0 6.0 0.00 0.09 0.00 85 1028.3
20260506221504 47 89 3.0 6.0 0.00 0.09 0.00 85 1028.2
20260506221003 47 82 4.0 6.0 0.00 0.09 0.00 85 1028.1
20260506220503 47 88 5.0 6.0 0.00 0.09 0.00 84 1028.1
20260506220004 47 95 6.0 8.0 0.00 0.09 0.00 84 1028.0
20260506215503 47 97 6.0 8.0 0.00 0.09 0.00 84 1027.9
20260506215004 47 97 4.0 8.0 0.00 0.09 0.00 84 1028.0
20260506214504 47 98 4.0 8.0 0.00 0.09 0.00 84 1027.7
20260506214004 47 104 4.0 6.0 0.00 0.09 0.00 83 1027.8
20260506213503 47 111 3.0 5.0 0.00 0.09 0.00 83 1027.8
20260506213004 47 114 2.0 5.0 0.00 0.09 0.00 83 1027.6
20260506212503 47 116 2.0 5.0 0.00 0.09 0.00 82 1027.6
20260506212024 48 119 1.0 4.0 0.00 0.09 0.00 81 1027.5
20260506211503 48 128 1.0 3.0 0.00 0.09 0.00 81 1027.5
20260506211004 48 133 0.0 3.0 0.00 0.09 0.00 80 1027.3
20260506210504 49 184 0.0 3.0 0.00 0.09 0.00 81 1027.3
20260506210004 49 189 0.0 3.0 0.00 0.09 0.00 80 1027.2
20260506205504 49 180 0.0 3.0 0.00 0.09 0.00 80 1027.2
20260506205003 49 183 0.0 3.0 0.00 0.09 0.00 80 1027.2
20260506204503 49 200 0.0 1.0 0.00 0.09 0.00 79 1027.1
20260506204003 50 164 1.0 3.0 0.00 0.09 0.00 79 1027.1
20260506203503 50 173 2.0 6.0 0.00 0.09 0.00 79 1027.1
20260506203025 50 171 2.0 6.0 0.00 0.09 0.00 78 1027.1
20260506202503 50 173 2.0 6.0 0.00 0.09 0.00 78 1027.0
20260506202004 50 179 3.0 9.0 0.00 0.09 0.00 78 1026.9
20260506201504 51 179 3.0 11.0 0.00 0.09 0.00 78 1026.8
20260506201024 51 180 3.0 11.0 0.00 0.09 0.00 78 1026.8
20260506200503 51 181 2.0 9.0 0.00 0.09 0.00 78 1026.8
20260506200025 50 175 1.0 9.0 0.00 0.09 0.00 79 1026.8
20260506195503 50 172 1.0 6.0 0.00 0.09 0.00 78 1026.7
20260506195003 50 178 1.0 5.0 0.00 0.09 0.00 78 1026.7
20260506194503 50 176 1.0 9.0 0.00 0.09 0.00 77 1026.5
20260506194004 50 177 1.0 9.0 0.00 0.09 0.00 77 1026.5
20260506193504 50 172 1.0 3.0 0.00 0.09 0.00 76 1026.5
20260506193004 51 185 1.0 8.0 0.00 0.09 0.00 75 1026.5
20260506192504 51 185 1.0 8.0 0.00 0.09 0.00 75 1026.5
20260506192003 51 186 1.0 3.0 0.00 0.09 0.00 73 1026.4
20260506191525 52 186 1.0 8.0 0.00 0.09 0.00 73 1026.4
20260506191004 52 187 2.0 8.0 0.00 0.09 0.00 72 1026.3
20260506190503 53 176 4.0 8.0 0.00 0.09 0.00 72 1026.3
20260506190004 53 179 5.0 10.0 0.00 0.09 0.00 72 1026.2
20260506185503 53 185 5.0 15.0 0.00 0.09 0.00 72 1026.1
20260506185003 53 184 5.0 15.0 0.00 0.09 0.00 72 1026.2
20260506184524 53 182 5.0 13.0 0.00 0.09 0.00 72 1026.1
20260506184003 53 182 4.0 11.0 0.00 0.09 0.00 71 1026.0
20260506183504 53 179 5.0 13.0 0.00 0.09 0.00 71 1025.9
20260506183004 53 182 5.0 15.0 0.00 0.09 0.00 71 1025.9
20260506182504 53 184 5.0 15.0 0.00 0.09 0.00 70 1025.9
20260506182025 53 184 4.0 13.0 0.00 0.09 0.00 70 1025.8
20260506181503 53 183 4.0 13.0 0.00 0.09 0.00 70 1025.8
20260506181004 53 180 4.0 9.0 0.00 0.09 0.00 70 1025.7
20260506180504 53 178 3.0 11.0 0.00 0.09 0.00 70 1025.8
20260506180024 53 179 3.0 14.0 0.00 0.09 0.00 70 1025.8
20260506175524 53 180 4.0 14.0 0.00 0.09 0.00 70 1025.8
20260506175004 53 181 5.0 13.0 0.00 0.09 0.00 71 1025.8
20260506174503 53 179 3.0 17.0 0.00 0.09 0.00 72 1025.9
20260506174003 52 177 1.0 17.0 0.00 0.09 0.00 72 1025.8
20260506173504 52 181 0.0 8.0 0.00 0.09 0.00 73 1025.9
20260506173003 52 0 0.0 0.0 0.00 0.09 0.00 73 1025.9
20260506172504 52 0 0.0 0.0 0.00 0.09 0.00 73 1025.8
20260506172003 52 164 1.0 5.0 0.00 0.09 0.00 73 1025.8
20260506171504 52 169 2.0 5.0 0.00 0.09 0.00 73 1025.9
20260506171004 51 170 2.0 9.0 0.00 0.09 0.00 72 1025.9
20260506170503 52 171 3.0 9.0 0.00 0.09 0.00 72 1026.0
20260506170004 52 179 3.0 9.0 0.00 0.09 0.00 72 1026.0
20260506165504 52 185 4.0 9.0 0.00 0.09 0.00 72 1026.0
20260506165004 52 182 4.0 9.0 0.00 0.09 0.00 71 1026.0
20260506164503 52 183 4.0 9.0 0.00 0.09 0.00 71 1026.0
20260506164004 52 188 4.0 9.0 0.00 0.09 0.00 70 1026.0
20260506163504 53 188 5.0 9.0 0.00 0.09 0.00 69 1026.0
20260506163004 53 186 6.0 13.0 0.00 0.09 0.00 68 1026.0
20260506162504 54 191 6.0 13.0 0.00 0.09 0.00 68 1026.0
20260506162004 54 195 6.0 15.0 0.00 0.09 0.00 67 1026.0
20260506161504 54 191 7.0 15.0 0.00 0.09 0.00 67 1025.8
20260506161004 54 188 8.0 15.0 0.00 0.09 0.00 66 1025.8
20260506160525 55 189 9.0 15.0 0.00 0.09 0.00 65 1025.8
20260506160004 55 190 9.0 18.0 0.00 0.09 0.00 65 1025.8
20260506155504 55 192 8.0 18.0 0.00 0.09 0.00 64 1025.7
20260506155004 55 192 6.0 17.0 0.00 0.09 0.00 64 1025.8
20260506154525 55 188 5.0 17.0 0.00 0.09 0.00 64 1025.8
20260506154004 55 188 5.0 11.0 0.00 0.09 0.00 64 1025.8
20260506153504 55 190 5.0 11.0 0.00 0.09 0.00 64 1025.7
20260506153004 55 194 6.0 11.0 0.00 0.09 0.00 63 1025.7
20260506152504 55 192 6.0 11.0 0.00 0.09 0.00 64 1025.7
20260506152004 55 194 6.0 11.0 0.00 0.09 0.00 64 1025.8
20260506151504 55 192 7.0 17.0 0.00 0.09 0.00 63 1025.8
20260506151004 55 185 7.0 17.0 0.00 0.09 0.00 64 1025.7
20260506150504 55 186 7.0 24.0 0.00 0.09 0.00 63 1025.7
20260506150004 55 186 7.0 24.0 0.00 0.09 0.00 65 1025.7
20260506145504 55 187 9.0 17.0 0.00 0.09 0.00 66 1025.7
20260506145004 55 198 8.0 24.0 0.00 0.09 0.00 65 1025.7
20260506144504 55 203 6.0 24.0 0.00 0.09 0.00 66 1025.7
20260506144004 55 193 6.0 13.0 0.00 0.09 0.00 67 1025.6
20260506143504 55 181 6.0 17.0 0.00 0.09 0.00 68 1025.6
20260506143005 55 176 7.0 17.0 0.00 0.09 0.00 67 1025.6
20260506142504 55 183 8.0 15.0 0.00 0.09 0.09 67 1025.5
20260506142004 55 190 9.0 23.0 0.00 0.09 0.09 67 1025.5
20260506141525 55 188 9.0 23.0 0.00 0.09 0.09 67 1025.5
20260506141004 55 191 8.0 20.0 0.00 0.09 0.09 68 1025.5
20260506140504 55 193 8.0 20.0 0.00 0.09 0.09 68 1025.5
20260506140004 55 189 8.0 17.0 0.00 0.09 0.09 68 1025.4
20260506135525 55 187 8.0 17.0 0.00 0.09 0.09 69 1025.3
20260506135004 55 184 8.0 17.0 0.00 0.09 0.09 69 1025.2
20260506134504 55 183 8.0 17.0 0.00 0.09 0.09 69 1025.2
20260506134004 55 182 8.0 20.0 0.00 0.09 0.09 70 1025.2
20260506133525 55 180 8.0 20.0 0.00 0.09 0.09 69 1025.2
20260506133004 56 181 8.0 18.0 0.00 0.09 0.09 70 1025.1
20260506132504 56 183 8.0 18.0 0.00 0.09 0.09 70 1025.1
20260506132004 56 188 8.0 17.0 0.00 0.09 0.09 70 1025.0
20260506131504 56 193 8.0 14.0 0.00 0.09 0.09 70 1025.0
20260506131004 56 190 8.0 14.0 0.00 0.09 0.09 70 1025.0
20260506130504 56 191 8.0 19.0 0.00 0.09 0.09 70 1024.9
20260506130025 56 196 8.0 19.0 0.00 0.09 0.09 71 1024.9
20260506125525 56 194 8.0 19.0 0.00 0.09 0.09 72 1024.8
20260506125004 56 190 8.0 14.0 0.00 0.09 0.09 72 1024.8
20260506124504 56 187 8.0 15.0 0.00 0.09 0.09 72 1024.8
20260506124004 56 186 8.0 15.0 0.00 0.09 0.09 71 1024.7
20260506123504 57 188 8.0 18.0 0.00 0.09 0.09 72 1024.7
20260506123004 56 187 8.0 18.0 0.00 0.09 0.09 72 1024.6
20260506122504 57 184 8.0 17.0 0.00 0.09 0.09 73 1024.6
20260506122004 57 188 8.0 17.0 0.00 0.09 0.09 74 1024.6
20260506121504 57 192 9.0 19.0 0.00 0.09 0.09 75 1024.6
20260506121004 57 187 8.0 19.0 0.00 0.09 0.09 75 1024.4
20260506120525 57 186 8.0 18.0 0.00 0.09 0.09 76 1024.4
20260506120004 56 188 8.0 17.0 0.00 0.09 0.09 78 1024.3
20260506115504 56 187 7.0 18.0 0.00 0.09 0.09 79 1024.4
20260506115004 56 188 7.0 18.0 0.00 0.09 0.09 79 1024.3
20260506114504 57 192 7.0 15.0 0.00 0.09 0.09 79 1024.3
20260506114004 57 198 8.0 15.0 0.00 0.09 0.09 80 1024.3
20260506113503 57 197 8.0 15.0 0.00 0.09 0.09 80 1024.2
20260506113004 57 196 7.0 15.0 0.00 0.09 0.09 80 1024.1
20260506112503 57 200 7.0 14.0 0.00 0.09 0.09 81 1024.1
20260506112004 56 197 7.0 15.0 0.00 0.09 0.09 82 1024.1
20260506111503 56 191 7.0 17.0 0.00 0.09 0.09 82 1024.0
20260506111003 56 190 8.0 17.0 0.00 0.09 0.09 82 1023.9
20260506110525 57 193 8.0 17.0 0.00 0.09 0.09 82 1023.9
20260506110004 57 194 7.0 17.0 0.00 0.09 0.09 83 1023.8
20260506105505 56 194 6.0 17.0 0.00 0.09 0.09 83 1023.8
20260506105004 57 196 6.0 15.0 0.00 0.09 0.09 83 1023.7
20260506104504 57 200 6.0 15.0 0.00 0.09 0.09 83 1023.7
20260506104004 57 200 6.0 13.0 0.00 0.09 0.09 84 1023.6
20260506103525 57 194 6.0 13.0 0.00 0.09 0.09 84 1023.5
20260506103004 57 188 6.0 17.0 0.00 0.09 0.09 84 1023.5
20260506102504 57 188 7.0 17.0 0.00 0.09 0.09 84 1023.4
20260506102004 58 186 8.0 17.0 0.00 0.09 0.09 84 1023.2
20260506101504 58 190 9.0 17.0 0.00 0.09 0.09 84 1023.2
20260506101004 58 194 9.0 18.0 0.00 0.09 0.09 84 1023.2
20260506100525 58 194 9.0 23.0 0.00 0.09 0.09 84 1023.2
20260506100025 58 197 9.0 23.0 0.00 0.09 0.09 84 1023.1
20260506095525 58 202 10.0 23.0 0.00 0.09 0.09 84 1023.0
20260506095004 59 206 10.0 23.0 0.00 0.09 0.09 85 1022.9
20260506094504 59 208 8.0 19.0 0.01 0.09 0.09 85 1022.8
20260506094003 59 208 7.0 19.0 0.01 0.09 0.09 85 1022.7
20260506093504 59 206 7.0 15.0 0.01 0.09 0.09 86 1022.6
20260506093004 59 205 7.0 11.0 0.01 0.09 0.09 86 1022.5
20260506092504 59 209 8.0 17.0 0.01 0.09 0.09 85 1022.4
20260506092004 59 210 7.0 17.0 0.01 0.09 0.09 85 1022.4
20260506091504 59 206 6.0 14.0 0.01 0.09 0.09 85 1022.4
20260506091003 59 202 5.0 13.0 0.01 0.09 0.09 85 1022.3